Groningen, Netherlands

6:55 PM CET on February 24, 2017 (GMT +0100)
Eelde

Weather History for EHGG - October, 2012

Change the Weather History Date:

Monday, October 22, 2012

  Actual Average Record
Temperature  
Mean Temperature 60 °F -  
Max Temperature 66 °F 50 °F 70 °F (2013)
Min Temperature 55 °F 38 °F 24 °F (2003)
Degree Days  
Heating Degree Days 4    
Growing Degree Days 10 (Base 50)    
Moisture  
Dew Point 57 °F    
Average Humidity 93    
Maximum Humidity 100    
Minimum Humidity 72    
Precipitation  
Precipitation 0.00 in 0.10 in - ()
Sea Level Pressure  
Sea Level Pressure 30.15 in    
Wind  
Wind Speed 5 mph ()    
Max Wind Speed 9 mph    
Max Gust Speed -    
Visibility 2.2 miles    
Events Fog    
Averages and records for this station are not official NWS values.
T = Trace of Precipitation, MM = Missing Value Source: Averaged Metar Reports

Daily Weather History Graph

Daily Weather History Graph

Search for Another Location

Airport or City:

Trip Planner

Search our weather history database for the weather conditions in past years. The results will help you decide how hot, cold, wet, or windy it might be!

Date:

Astronomy

Oct. 22, 2012 Rise Set
Actual Time 8:13 AM CEST 6:21 PM CEST
Civil Twilight 7:37 AM CEST 6:57 PM CEST
Nautical Twilight 6:57 AM CEST 7:37 PM CEST
Astronomical Twilight 6:17 AM CEST 8:17 PM CEST
Moon 3:12 PM CEST (10/22) No Moon Set
Length of Visible Light 11h 19m
Length of Day
10h 08m
First Quarter, 53% of the Moon is Illuminated
Oct 22
First Quarter
Oct 29
Full
Nov 7
Last Quarter
Nov 13
New
Nov 20
First Quarter

Hourly Weather History & Observations

Time (CEST) Temp. Dew Point Humidity Pressure Visibility Wind Dir Wind Speed Gust Speed Precip Events Conditions
12:25 AM 57.2 °F 57.2 °F 100% 30.06 in 1.0 mi ENE 9.2 mph - N/A   Mostly Cloudy
12:55 AM 57.2 °F 57.2 °F 100% 30.09 in 1.1 mi NE 5.8 mph - N/A   Overcast
1:25 AM 57.2 °F 57.2 °F 100% 30.09 in 1.2 mi ENE 6.9 mph - N/A   Overcast
1:55 AM 57.2 °F 57.2 °F 100% 30.09 in 1.4 mi ENE 5.8 mph - N/A   Overcast
2:00 AM 58 °F 58 °F 99% 30.11 in 1 mi East 6.7 mph - -   Mist
2:25 AM 57.2 °F 57.2 °F 100% 30.09 in 1.6 mi East 8.1 mph - N/A   Overcast
2:55 AM 57.2 °F 57.2 °F 100% 30.09 in 1.6 mi East 8.1 mph - N/A   Overcast
3:25 AM 57.2 °F 57.2 °F 100% 30.09 in 1.5 mi East 6.9 mph - N/A   Overcast
3:55 AM 57.2 °F 57.2 °F 100% 30.09 in 1.4 mi East 6.9 mph - N/A   Overcast
4:25 AM 57.2 °F 57.2 °F 100% 30.09 in 1.3 mi East 5.8 mph - N/A   Overcast
4:55 AM 57.2 °F 57.2 °F 100% 30.09 in 1.1 mi ESE 6.9 mph - N/A   Overcast
5:00 AM 58 °F 57 °F 97% 30.11 in 1 mi ESE 6.7 mph - -   Mist
5:25 AM 57.2 °F 57.2 °F 100% 30.09 in 0.9 mi East 5.8 mph - N/A   Overcast
5:55 AM 57.2 °F 57.2 °F 100% 30.09 in 0.7 mi East 4.6 mph - N/A   Overcast
6:25 AM 57.2 °F 57.2 °F 100% 30.09 in - ESE 4.6 mph - N/A Fog Fog
6:55 AM 57.2 °F 57.2 °F 100% 30.09 in 0.4 mi East 4.6 mph - N/A Fog Fog
7:25 AM 55.4 °F 55.4 °F 100% 30.09 in 0.4 mi ESE 5.8 mph - N/A Fog Fog
7:55 AM 55.4 °F 55.4 °F 100% 30.12 in 0.4 mi ESE 3.5 mph - N/A Fog Fog
8:25 AM 55.4 °F 55.4 °F 100% 30.12 in 0.3 mi Variable 2.3 mph - N/A Fog Fog
8:55 AM 55.4 °F 55.4 °F 100% 30.12 in 0.2 mi ESE 4.6 mph - N/A Fog Fog
9:25 AM 55.4 °F 55.4 °F 100% 30.12 in 0.2 mi East 4.6 mph - N/A Fog Fog
9:55 AM 55.4 °F 55.4 °F 100% 30.12 in 0.3 mi ESE 4.6 mph - N/A Fog Fog
10:25 AM 55.4 °F 55.4 °F 100% 30.15 in 0.7 mi ESE 3.5 mph - N/A   Mist
10:55 AM 57.2 °F 57.2 °F 100% 30.15 in - ESE 5.8 mph - N/A   Partly Cloudy
11:00 AM 58 °F 58 °F 99% 30.17 in 3 mi ESE 6.7 mph - - Fog Fog
11:25 AM 59.0 °F 59.0 °F 100% 30.15 in 3.1 mi ESE 4.6 mph - N/A   Mist
11:55 AM 60.8 °F 57.2 °F 88% 30.15 in 4.3 mi SE 4.6 mph - N/A   Unknown
12:25 PM 62.6 °F 57.2 °F 82% 30.15 in 5.0 mi ESE 4.6 mph - N/A   Unknown
12:55 PM 64.4 °F 57.2 °F 77% 30.15 in 5.6 mi East 4.6 mph - N/A   Unknown
1:25 PM 64.4 °F 57.2 °F 77% 30.15 in 5.0 mi East 3.5 mph - N/A   Unknown
1:55 PM 64.4 °F 57.2 °F 77% 30.15 in 5.0 mi East 4.6 mph - N/A   Unknown
2:00 PM 65 °F 58 °F 72% 30.18 in 5 mi East 4.5 mph - -   Mist
2:25 PM 64.4 °F 59.0 °F 83% 30.15 in 5.0 mi East 4.6 mph - N/A   Unknown
2:55 PM 64.4 °F 57.2 °F 77% 30.15 in 5.0 mi East 5.8 mph - N/A   Unknown
3:25 PM 64.4 °F 59.0 °F 83% 30.18 in 3.7 mi ENE 6.9 mph - N/A   Unknown
3:55 PM 64.4 °F 59.0 °F 83% 30.18 in 3.7 mi East 6.9 mph - N/A   Unknown
4:25 PM 64.4 °F 59.0 °F 83% 30.18 in 3.1 mi ENE 6.9 mph - N/A   Mist
4:55 PM 64.4 °F 59.0 °F 83% 30.18 in - ENE 6.9 mph - N/A   Mist
5:00 PM 64 °F 58 °F 76% 30.19 in 3 mi East 8.9 mph - -   Mist
5:25 PM 62.6 °F 57.2 °F 82% 30.18 in - East 5.8 mph - N/A   Mist
5:55 PM 62.6 °F 57.2 °F 82% 30.18 in 3.1 mi East 5.8 mph - N/A   Mist
6:25 PM 60.8 °F 57.2 °F 88% 30.18 in - East 4.6 mph - N/A   Mist
6:55 PM 59.0 °F 55.4 °F 88% 30.18 in - ENE 4.6 mph - N/A   Mist
7:25 PM 59.0 °F 57.2 °F 94% 30.21 in - East 4.6 mph - N/A   Mist
7:55 PM 59.0 °F 57.2 °F 94% 30.21 in - East 5.8 mph - N/A   Mist
8:00 PM 59 °F 57 °F 89% 30.23 in 2 mi East 4.5 mph - -   Mist
8:25 PM 59.0 °F 57.2 °F 94% 30.21 in - East 5.8 mph - N/A   Mist
8:55 PM 59.0 °F 55.4 °F 88% 30.21 in 2.5 mi East 4.6 mph - N/A   Mist
9:25 PM 57.2 °F 55.4 °F 94% 30.21 in 2.5 mi East 4.6 mph - N/A   Mist
9:55 PM 57.2 °F 55.4 °F 94% 30.21 in - East 5.8 mph - N/A   Mist
10:25 PM 57.2 °F 55.4 °F 94% 30.24 in 2.2 mi East 4.6 mph - N/A   Mist
10:55 PM 55.4 °F 53.6 °F 94% 30.24 in - East 4.6 mph - N/A   Mist
11:00 PM 56 °F 54 °F 93% 30.25 in 2 mi East 4.5 mph - -   Mist
11:25 PM 55.4 °F 53.6 °F 94% 30.24 in 1.9 mi East 3.5 mph - N/A   Mist
11:55 PM 55.4 °F 53.6 °F 94% 30.24 in 1.8 mi East 3.5 mph - N/A   Mist